Showing default

HULIANWANG DIGUI-41, 65044

Orbit data source: Space-Track

HULIANWANG DIGUI-41, 65044 is a payload satellite owned by Zhongguo Xingwang (CN) in LEO that was launched on Wed, 30 Jul 2025 UTC via a CHANG ZHENG 8A launch vehicle from the Wenchang Satellite Launch Center (WSC). Payload-class satellites include a variety of spacecraft equipped with specific instruments for various scientific and technological missions. These include communications satellites like Starlink; space stations such as the ISS; scientific satellites like the Hubble; Earth observation satellites from companies like Planet Labs, Umbra, and HawkEye 360; GPS; miniature CubeSats for education and research; and military/defense satellites.

Loading next visibility...
Identifier
65044, 2025-162B
Orbit
LEO
Country
Flag of CNCN / PRC
Related business
Manufacturer
SECM
Mission
Operational Civil Communications
Bus & Motor
GUOWANG S, Unknown motor
Mass
~800 kg wet, ~800 kg dry
Launch date (UTC)
2025-07-30 (4 months ago)
Launch vehicle
CHANG ZHENG 8A
Launch site
Wenchang Satellite Launch Center (WSC)
Object type
Payload
Rocket body
Debris
Shape & HBR
Box + 2 Pan, 14.5 m
Radar Cross Section
5.935 m², Large (>1 m²)

Expand to show TLE details & history
Last TLE update: 13 hours ago

TLE from 13 hours ago
0 HULIANWANG DIGUI-41
1 65044U 25162B   25342.42793312 -.00000040  00000-0  18201-3 0  9992
2 65044  49.9997 230.1098 0000484  80.7403 279.3524 13.29330357 17982
Epoch: 2025-12-08T10:16Z
TLE epoch observation values (Epoch: 2025-12-08T10:16:13.421Z)
Latitude
-0.00001°
Longitude
-1.37324°
Altitude
1,149.737 km
Speed
7.279 km/s
True Right ascension
15h 20m 26s
True Declination
0° 00' 00"
Sunlit
Object was in daylight at epoch
Visualization orbit readout
Latitude
Unknown
Longitude
Unknown
Altitude
Unknown
Speed
Unknown
Apparent Right ascension
Unknown
Apparent Declination
Unknown
Sunlit
N/A
Visualization observer readout
Local Sidereal Time
21:51:11
Azimuth
Unknown
Elevation
Unknown
Doppler factor
Unknown
Orbital elements
Apogee altitude
1,150.36 km
Perigee altitude
1,149.631 km
Semi-major axis
7,528.133 km
Eccentricity
0.00005
Inclination
49.9997°
RAAN
230.1098°
Arg. of periapsis
80.7403°
True anomaly
279.34693°
Mean anomaly
279.3524°
Eccentric anomaly
279.34966°
Mean motion
3.32286 °/min
Orbital period
108.34 mins
BSTAR
0.00018201
Loading maneuver chart data...
Computing Atmospheric mass density...
Loading historical data...
Loading historical data...
Loading historical data...
Loading historical data...
Loading historical data...
Loading historical data...
Loading historical data...

Documentation

Showing up to 5 results
|